Powrót do katalogu

STARLINK-30857

AktywnyŁącznośćVLEO
NORAD 58595·PAYLOAD·🇺🇸 United States

Wystrzelony Dec 19, 2023 z Cape Canaveral Space Force Station

Loading…

Następne Przeloty (najbliższe 24 godziny)

TLE

ŚwieżeSource: CelesTrak SupGP

Epoka: Sep 14, 2026, 22:15 UTC

1 58595C 23200G   26257.92756944 -.00007166  00000+0 -25957-3 0  2576
2 58595  42.9996 180.1386 0001427 256.1798  56.7825 15.27578492    16

Śledź STARLINK-30857 w czasie rzeczywistym z AllMySat

Download on the App Store